owner,sensor,date,latitude,longitude,sea_surface_height_above_sea_level,qcFlag 
TCOON,ioos:station:TCOON:009:1,2017-01-02T06:48:00Z,27.8398,-97.0727,1.902,1111122 
TCOON,ioos:station:TCOON:009:1,2017-01-02T07:18:00Z,27.8398,-97.0727,1.916,1111122 
TCOON,ioos:station:TCOON:009:1,2017-01-02T08:18:00Z,27.8398,-97.0727,1.919,1111122 
TCOON,ioos:station:TCOON:009:1,2017-01-05T15:18:00Z,27.8398,-97.0727,1.774,1111122 
TCOON,ioos:station:TCOON:009:1,2017-01-05T16:18:00Z,27.8398,-97.0727,1.765,1111122 
TCOON,ioos:station:TCOON:009:1,2017-01-05T17:18:00Z,27.8398,-97.0727,1.761,1111122 
TCOON,ioos:station:TCOON:009:1,2017-01-05T18:18:00Z,27.8398,-97.0727,1.749,1111122 
TCOON,ioos:station:TCOON:009:1,2017-01-05T19:18:00Z,27.8398,-97.0727,1.776,1111122 
TCOON,ioos:station:TCOON:009:1,2017-01-05T20:24:00Z,27.8398,-97.0727,1.752,1111122 
TCOON,ioos:station:TCOON:009:1,2017-01-05T21:18:00Z,27.8398,-97.0727,1.748,1111122 
TCOON,ioos:station:TCOON:009:1,2017-01-05T22:18:00Z,27.8398,-97.0727,1.765,1111122 
TCOON,ioos:station:TCOON:009:1,2017-01-05T23:18:00Z,27.8398,-97.0727,1.792,1111122 
TCOON,ioos:station:TCOON:009:1,2017-01-06T00:18:00Z,27.8398,-97.0727,1.813,1111122 
TCOON,ioos:station:TCOON:009:1,2017-01-06T01:18:00Z,27.8398,-97.0727,1.855,1111122 
TCOON,ioos:station:TCOON:009:1,2017-01-06T02:18:00Z,27.8398,-97.0727,1.849,1111122 
TCOON,ioos:station:TCOON:009:1,2017-01-06T03:18:00Z,27.8398,-97.0727,1.847,1111122 
TCOON,ioos:station:TCOON:009:1,2017-01-06T04:18:00Z,27.8398,-97.0727,1.85,1111122 
TCOON,ioos:station:TCOON:009:1,2017-01-06T05:24:00Z,27.8398,-97.0727,1.836,1111122 
TCOON,ioos:station:TCOON:009:1,2017-01-06T06:18:00Z,27.8398,-97.0727,1.818,1111122 
TCOON,ioos:station:TCOON:009:1,2017-01-06T07:18:00Z,27.8398,-97.0727,1.772,1111122 
TCOON,ioos:station:TCOON:009:1,2017-01-06T08:18:00Z,27.8398,-97.0727,1.751,1111122 
TCOON,ioos:station:TCOON:009:1,2017-01-06T09:18:00Z,27.8398,-97.0727,1.76,1111122 
TCOON,ioos:station:TCOON:009:1,2017-01-06T10:24:00Z,27.8398,-97.0727,1.738,1111122 
TCOON,ioos:station:TCOON:009:1,2017-01-06T11:18:00Z,27.8398,-97.0727,1.773,1111122 
TCOON,ioos:station:TCOON:009:1,2017-01-06T12:18:00Z,27.8398,-97.0727,1.801,1111122 
TCOON,ioos:station:TCOON:009:1,2017-01-06T13:18:00Z,27.8398,-97.0727,1.794,1111122 
TCOON,ioos:station:TCOON:009:1,2017-01-06T14:24:00Z,27.8398,-97.0727,1.824,1111122 
TCOON,ioos:station:TCOON:009:1,2017-01-06T15:18:00Z,27.8398,-97.0727,1.852,1111122 
TCOON,ioos:station:TCOON:009:1,2017-01-06T16:18:00Z,27.8398,-97.0727,1.894,1111122 
TCOON,ioos:station:TCOON:009:1,2017-01-06T17:18:00Z,27.8398,-97.0727,1.88,1111122 
TCOON,ioos:station:TCOON:009:1,2017-01-06T18:18:00Z,27.8398,-97.0727,1.856,1111122 
TCOON,ioos:station:TCOON:009:1,2017-01-06T19:24:00Z,27.8398,-97.0727,1.873,1111122 
TCOON,ioos:station:TCOON:009:1,2017-01-06T20:18:00Z,27.8398,-97.0727,1.859,1111122 
TCOON,ioos:station:TCOON:009:1,2017-01-06T21:18:00Z,27.8398,-97.0727,1.848,1111122 
TCOON,ioos:station:TCOON:009:1,2017-01-06T22:18:00Z,27.8398,-97.0727,1.849,1111122 
TCOON,ioos:station:TCOON:009:1,2017-01-07T00:18:00Z,27.8398,-97.0727,1.824,1111122 
TCOON,ioos:station:TCOON:009:1,2017-01-07T01:18:00Z,27.8398,-97.0727,1.858,1111122 
TCOON,ioos:station:TCOON:009:1,2017-01-07T02:18:00Z,27.8398,-97.0727,1.865,1111122 
TCOON,ioos:station:TCOON:009:1,2017-01-07T03:18:00Z,27.8398,-97.0727,1.863,1111122 
TCOON,ioos:station:TCOON:009:1,2017-01-07T04:18:00Z,27.8398,-97.0727,1.88,1111122 
TCOON,ioos:station:TCOON:009:1,2017-01-07T05:18:00Z,27.8398,-97.0727,1.823,1111122 
TCOON,ioos:station:TCOON:009:1,2017-01-07T06:18:00Z,27.8398,-97.0727,1.739,1111122 
TCOON,ioos:station:TCOON:009:1,2017-01-07T07:18:00Z,27.8398,-97.0727,1.671,1111122 
TCOON,ioos:station:TCOON:009:1,2017-01-07T08:18:00Z,27.8398,-97.0727,1.671,1111122 
TCOON,ioos:station:TCOON:009:1,2017-01-07T09:24:00Z,27.8398,-97.0727,1.639,1111122 
TCOON,ioos:station:TCOON:009:1,2017-01-07T10:18:00Z,27.8398,-97.0727,1.593,1111122 
TCOON,ioos:station:TCOON:009:1,2017-01-07T11:18:00Z,27.8398,-97.0727,1.562,1111122 
TCOON,ioos:station:TCOON:009:1,2017-01-07T12:18:00Z,27.8398,-97.0727,1.548,1111122 
TCOON,ioos:station:TCOON:009:1,2017-01-07T13:18:00Z,27.8398,-97.0727,1.607,1111122 
TCOON,ioos:station:TCOON:009:1,2017-01-07T14:18:00Z,27.8398,-97.0727,1.625,1111122 
TCOON,ioos:station:TCOON:009:1,2017-01-07T15:18:00Z,27.8398,-97.0727,1.647,1111122 
TCOON,ioos:station:TCOON:009:1,2017-01-07T16:18:00Z,27.8398,-97.0727,1.688,1111122 
TCOON,ioos:station:TCOON:009:1,2017-01-07T17:18:00Z,27.8398,-97.0727,1.592,1111122 
TCOON,ioos:station:TCOON:009:1,2017-01-07T18:18:00Z,27.8398,-97.0727,1.666,1111122 
TCOON,ioos:station:TCOON:009:1,2017-01-07T19:18:00Z,27.8398,-97.0727,1.653,1111122 
TCOON,ioos:station:TCOON:009:1,2017-01-07T20:18:00Z,27.8398,-97.0727,1.693,1111122 
TCOON,ioos:station:TCOON:009:1,2017-01-07T21:18:00Z,27.8398,-97.0727,1.664,1111122 
TCOON,ioos:station:TCOON:009:1,2017-01-07T22:18:00Z,27.8398,-97.0727,1.632,1111122 
TCOON,ioos:station:TCOON:009:1,2017-01-07T23:18:00Z,27.8398,-97.0727,1.627,1111122 
TCOON,ioos:station:TCOON:009:1,2017-01-08T00:18:00Z,27.8398,-97.0727,1.603,1111122 
TCOON,ioos:station:TCOON:009:1,2017-01-08T01:18:00Z,27.8398,-97.0727,1.629,1111122 
TCOON,ioos:station:TCOON:009:1,2017-01-08T02:18:00Z,27.8398,-97.0727,1.628,1111122 
TCOON,ioos:station:TCOON:009:1,2017-01-08T03:18:00Z,27.8398,-97.0727,1.615,1111122 
TCOON,ioos:station:TCOON:009:1,2017-01-08T04:18:00Z,27.8398,-97.0727,1.624,1111122 
TCOON,ioos:station:TCOON:009:1,2017-01-08T05:18:00Z,27.8398,-97.0727,1.605,1111122 
TCOON,ioos:station:TCOON:009:1,2017-01-08T06:18:00Z,27.8398,-97.0727,1.581,1111122 
TCOON,ioos:station:TCOON:009:1,2017-01-08T07:18:00Z,27.8398,-97.0727,1.481,1111122 
TCOON,ioos:station:TCOON:009:1,2017-01-08T08:18:00Z,27.8398,-97.0727,1.457,1111122 
TCOON,ioos:station:TCOON:009:1,2017-01-08T09:18:00Z,27.8398,-97.0727,1.402,1111122 
TCOON,ioos:station:TCOON:009:1,2017-01-08T10:18:00Z,27.8398,-97.0727,1.386,1111122 
TCOON,ioos:station:TCOON:009:1,2017-01-08T11:18:00Z,27.8398,-97.0727,1.374,1111122 
TCOON,ioos:station:TCOON:009:1,2017-01-08T13:54:00Z,27.8398,-97.0727,1.464,1111122 
TCOON,ioos:station:TCOON:009:1,2017-01-08T14:18:00Z,27.8398,-97.0727,1.5,1111122 
TCOON,ioos:station:TCOON:009:1,2017-01-08T15:18:00Z,27.8398,-97.0727,1.586,1111122 
TCOON,ioos:station:TCOON:009:1,2017-01-08T16:18:00Z,27.8398,-97.0727,1.653,1111122 
TCOON,ioos:station:TCOON:009:1,2017-01-08T17:18:00Z,27.8398,-97.0727,1.667,1111122 
TCOON,ioos:station:TCOON:009:1,2017-01-08T18:18:00Z,27.8398,-97.0727,1.72,1111122 
TCOON,ioos:station:TCOON:009:1,2017-01-08T19:18:00Z,27.8398,-97.0727,1.727,1111122 
TCOON,ioos:station:TCOON:009:1,2017-01-08T20:18:00Z,27.8398,-97.0727,1.752,1111122 
TCOON,ioos:station:TCOON:009:1,2017-01-08T21:18:00Z,27.8398,-97.0727,1.76,1111122 
TCOON,ioos:station:TCOON:009:1,2017-01-08T22:18:00Z,27.8398,-97.0727,1.796,1111122 
TCOON,ioos:station:TCOON:009:1,2017-01-08T23:18:00Z,27.8398,-97.0727,1.811,1111122 
TCOON,ioos:station:TCOON:009:1,2017-01-09T00:18:00Z,27.8398,-97.0727,1.812,1111122 
TCOON,ioos:station:TCOON:009:1,2017-01-09T01:18:00Z,27.8398,-97.0727,1.804,1111122 
TCOON,ioos:station:TCOON:009:1,2017-01-09T02:18:00Z,27.8398,-97.0727,1.819,1111122 
TCOON,ioos:station:TCOON:009:1,2017-01-09T03:18:00Z,27.8398,-97.0727,1.842,1111122 
TCOON,ioos:station:TCOON:009:1,2017-01-09T04:18:00Z,27.8398,-97.0727,1.85,1111122 
TCOON,ioos:station:TCOON:009:1,2017-01-09T05:18:00Z,27.8398,-97.0727,1.852,1111122 
TCOON,ioos:station:TCOON:009:1,2017-01-09T06:18:00Z,27.8398,-97.0727,1.831,1111122 
TCOON,ioos:station:TCOON:009:1,2017-01-09T07:18:00Z,27.8398,-97.0727,1.761,1111122 
TCOON,ioos:station:TCOON:009:1,2017-01-09T08:18:00Z,27.8398,-97.0727,1.697,1111122 
TCOON,ioos:station:TCOON:009:1,2017-01-09T09:18:00Z,27.8398,-97.0727,1.635,1111122 
TCOON,ioos:station:TCOON:009:1,2017-01-09T10:18:00Z,27.8398,-97.0727,1.6,1111122 
TCOON,ioos:station:TCOON:009:1,2017-01-09T11:18:00Z,27.8398,-97.0727,1.546,1111122 
TCOON,ioos:station:TCOON:009:1,2017-01-09T12:18:00Z,27.8398,-97.0727,1.531,1111122 
TCOON,ioos:station:TCOON:009:1,2017-01-09T13:18:00Z,27.8398,-97.0727,1.534,1111122 
TCOON,ioos:station:TCOON:009:1,2017-01-09T14:18:00Z,27.8398,-97.0727,1.589,1111122 
TCOON,ioos:station:TCOON:009:1,2017-01-09T15:18:00Z,27.8398,-97.0727,1.653,1111122 
TCOON,ioos:station:TCOON:009:1,2017-01-09T16:18:00Z,27.8398,-97.0727,1.711,1111122 
TCOON,ioos:station:TCOON:009:1,2017-01-09T17:18:00Z,27.8398,-97.0727,1.786,1111122 
TCOON,ioos:station:TCOON:009:1,2017-01-09T18:18:00Z,27.8398,-97.0727,1.814,1111122 
TCOON,ioos:station:TCOON:009:1,2017-01-09T19:18:00Z,27.8398,-97.0727,1.825,1111122 
TCOON,ioos:station:TCOON:009:1,2017-01-09T20:18:00Z,27.8398,-97.0727,1.847,1111122 
TCOON,ioos:station:TCOON:009:1,2017-01-09T21:18:00Z,27.8398,-97.0727,1.879,1111122 
TCOON,ioos:station:TCOON:009:1,2017-01-09T22:18:00Z,27.8398,-97.0727,1.84,1111122 
TCOON,ioos:station:TCOON:009:1,2017-01-09T23:18:00Z,27.8398,-97.0727,1.836,1111122 
TCOON,ioos:station:TCOON:009:1,2017-01-10T00:18:00Z,27.8398,-97.0727,1.81,1111122 
TCOON,ioos:station:TCOON:009:1,2017-01-10T01:18:00Z,27.8398,-97.0727,1.825,1111122 
TCOON,ioos:station:TCOON:009:1,2017-01-10T02:18:00Z,27.8398,-97.0727,1.837,1111122 
TCOON,ioos:station:TCOON:009:1,2017-01-10T03:18:00Z,27.8398,-97.0727,1.842,1111122 
TCOON,ioos:station:TCOON:009:1,2017-01-10T04:24:00Z,27.8398,-97.0727,1.867,1111122 
TCOON,ioos:station:TCOON:009:1,2017-01-10T05:18:00Z,27.8398,-97.0727,1.864,1111122 
TCOON,ioos:station:TCOON:009:1,2017-01-10T06:18:00Z,27.8398,-97.0727,1.833,1111122 
TCOON,ioos:station:TCOON:009:1,2017-01-10T07:18:00Z,27.8398,-97.0727,1.807,1111122 
TCOON,ioos:station:TCOON:009:1,2017-01-10T08:18:00Z,27.8398,-97.0727,1.716,1111122 
TCOON,ioos:station:TCOON:009:1,2017-01-10T09:18:00Z,27.8398,-97.0727,1.628,1111122 
TCOON,ioos:station:TCOON:009:1,2017-01-10T10:18:00Z,27.8398,-97.0727,1.554,1111122 
TCOON,ioos:station:TCOON:009:1,2017-01-10T11:18:00Z,27.8398,-97.0727,1.525,1111122 
TCOON,ioos:station:TCOON:009:1,2017-01-10T12:18:00Z,27.8398,-97.0727,1.484,1111122 
TCOON,ioos:station:TCOON:009:1,2017-01-10T13:18:00Z,27.8398,-97.0727,1.509,1111122 
TCOON,ioos:station:TCOON:009:1,2017-01-10T14:18:00Z,27.8398,-97.0727,1.511,1111122 
TCOON,ioos:station:TCOON:009:1,2017-01-10T15:18:00Z,27.8398,-97.0727,1.585,1111122 
TCOON,ioos:station:TCOON:009:1,2017-01-10T16:18:00Z,27.8398,-97.0727,1.655,1111122 
TCOON,ioos:station:TCOON:009:1,2017-01-10T17:18:00Z,27.8398,-97.0727,1.741,1111122 
TCOON,ioos:station:TCOON:009:1,2017-01-10T18:18:00Z,27.8398,-97.0727,1.827,1111122 
TCOON,ioos:station:TCOON:009:1,2017-01-10T19:18:00Z,27.8398,-97.0727,1.846,1111122 
TCOON,ioos:station:TCOON:009:1,2017-01-10T20:18:00Z,27.8398,-97.0727,1.869,1111122 
TCOON,ioos:station:TCOON:009:1,2017-01-10T21:18:00Z,27.8398,-97.0727,1.902,1111122 
TCOON,ioos:station:TCOON:009:1,2017-01-10T22:18:00Z,27.8398,-97.0727,1.888,1111122 
TCOON,ioos:station:TCOON:009:1,2017-01-10T23:18:00Z,27.8398,-97.0727,1.857,1111122 
TCOON,ioos:station:TCOON:009:1,2017-01-11T00:18:00Z,27.8398,-97.0727,1.874,1111122 
TCOON,ioos:station:TCOON:009:1,2017-01-11T01:18:00Z,27.8398,-97.0727,1.853,1111122 
TCOON,ioos:station:TCOON:009:1,2017-01-11T02:18:00Z,27.8398,-97.0727,1.86,1111122 
TCOON,ioos:station:TCOON:009:1,2017-01-11T03:18:00Z,27.8398,-97.0727,1.863,1111122 
TCOON,ioos:station:TCOON:009:1,2017-01-11T04:18:00Z,27.8398,-97.0727,1.84,1111122 
TCOON,ioos:station:TCOON:009:1,2017-01-11T05:18:00Z,27.8398,-97.0727,1.832,1111122 
TCOON,ioos:station:TCOON:009:1,2017-01-11T06:18:00Z,27.8398,-97.0727,1.833,1111122 
TCOON,ioos:station:TCOON:009:1,2017-01-11T07:18:00Z,27.8398,-97.0727,1.82,1111122 
TCOON,ioos:station:TCOON:009:1,2017-01-11T08:18:00Z,27.8398,-97.0727,1.725,1111122 
TCOON,ioos:station:TCOON:009:1,2017-01-11T09:18:00Z,27.8398,-97.0727,1.635,1111122 
TCOON,ioos:station:TCOON:009:1,2017-01-11T10:18:00Z,27.8398,-97.0727,1.537,1111122 
TCOON,ioos:station:TCOON:009:1,2017-01-11T11:18:00Z,27.8398,-97.0727,1.489,1111122 
TCOON,ioos:station:TCOON:009:1,2017-01-11T12:18:00Z,27.8398,-97.0727,1.439,1111122 
TCOON,ioos:station:TCOON:009:1,2017-01-11T13:18:00Z,27.8398,-97.0727,1.374,1111122 
TCOON,ioos:station:TCOON:009:1,2017-01-11T14:18:00Z,27.8398,-97.0727,1.376,1111122 
TCOON,ioos:station:TCOON:009:1,2017-01-11T15:18:00Z,27.8398,-97.0727,1.408,1111122 
TCOON,ioos:station:TCOON:009:1,2017-01-11T16:18:00Z,27.8398,-97.0727,1.483,1111122 
TCOON,ioos:station:TCOON:009:1,2017-01-11T17:18:00Z,27.8398,-97.0727,1.554,1111122 
TCOON,ioos:station:TCOON:009:1,2017-01-11T18:18:00Z,27.8398,-97.0727,1.694,1111122 
TCOON,ioos:station:TCOON:009:1,2017-01-11T19:18:00Z,27.8398,-97.0727,1.743,1111122 
TCOON,ioos:station:TCOON:009:1,2017-01-11T20:18:00Z,27.8398,-97.0727,1.789,1111122 
TCOON,ioos:station:TCOON:009:1,2017-01-11T21:18:00Z,27.8398,-97.0727,1.816,1111122 
TCOON,ioos:station:TCOON:009:1,2017-01-11T22:18:00Z,27.8398,-97.0727,1.841,1111122 
TCOON,ioos:station:TCOON:009:1,2017-01-11T23:18:00Z,27.8398,-97.0727,1.858,1111122 
TCOON,ioos:station:TCOON:009:1,2017-01-12T00:18:00Z,27.8398,-97.0727,1.827,1111122 
TCOON,ioos:station:TCOON:009:1,2017-01-12T01:18:00Z,27.8398,-97.0727,1.835,1111122 
TCOON,ioos:station:TCOON:009:1,2017-01-12T02:18:00Z,27.8398,-97.0727,1.84,1111122 
TCOON,ioos:station:TCOON:009:1,2017-01-12T03:18:00Z,27.8398,-97.0727,1.844,1111122 
TCOON,ioos:station:TCOON:009:1,2017-01-12T04:18:00Z,27.8398,-97.0727,1.861,1111122 
TCOON,ioos:station:TCOON:009:1,2017-01-12T05:18:00Z,27.8398,-97.0727,1.854,1111122 
TCOON,ioos:station:TCOON:009:1,2017-01-12T06:18:00Z,27.8398,-97.0727,1.855,1111122 
TCOON,ioos:station:TCOON:009:1,2017-01-12T07:18:00Z,27.8398,-97.0727,1.837,1111122 
TCOON,ioos:station:TCOON:009:1,2017-01-12T08:18:00Z,27.8398,-97.0727,1.807,1111122 
TCOON,ioos:station:TCOON:009:1,2017-01-12T09:18:00Z,27.8398,-97.0727,1.787,1111122 
TCOON,ioos:station:TCOON:009:1,2017-01-12T10:18:00Z,27.8398,-97.0727,1.696,1111122 
TCOON,ioos:station:TCOON:009:1,2017-01-12T11:18:00Z,27.8398,-97.0727,1.59,1111122 
TCOON,ioos:station:TCOON:009:1,2017-01-12T12:18:00Z,27.8398,-97.0727,1.504,1111122 
TCOON,ioos:station:TCOON:009:1,2017-01-12T13:18:00Z,27.8398,-97.0727,1.441,1111122 
TCOON,ioos:station:TCOON:009:1,2017-01-12T14:18:00Z,27.8398,-97.0727,1.427,1111122 
TCOON,ioos:station:TCOON:009:1,2017-01-12T15:18:00Z,27.8398,-97.0727,1.444,1111122 
TCOON,ioos:station:TCOON:009:1,2017-01-12T16:18:00Z,27.8398,-97.0727,1.491,1111122 
TCOON,ioos:station:TCOON:009:1,2017-01-12T17:18:00Z,27.8398,-97.0727,1.567,1111122 
TCOON,ioos:station:TCOON:009:1,2017-01-12T18:18:00Z,27.8398,-97.0727,1.628,1111122 
TCOON,ioos:station:TCOON:009:1,2017-01-12T19:18:00Z,27.8398,-97.0727,1.726,1111122 
TCOON,ioos:station:TCOON:009:1,2017-01-12T20:18:00Z,27.8398,-97.0727,1.798,1111122 
TCOON,ioos:station:TCOON:009:1,2017-01-12T21:18:00Z,27.8398,-97.0727,1.859,1111122 
TCOON,ioos:station:TCOON:009:1,2017-01-12T22:18:00Z,27.8398,-97.0727,1.883,1111122 
TCOON,ioos:station:TCOON:009:1,2017-01-12T23:18:00Z,27.8398,-97.0727,1.866,1111122 
TCOON,ioos:station:TCOON:009:1,2017-01-13T00:18:00Z,27.8398,-97.0727,1.862,1111122 
TCOON,ioos:station:TCOON:009:1,2017-01-13T01:18:00Z,27.8398,-97.0727,1.865,1111122 
TCOON,ioos:station:TCOON:009:1,2017-01-13T02:18:00Z,27.8398,-97.0727,1.879,1111122 
TCOON,ioos:station:TCOON:009:1,2017-01-13T03:18:00Z,27.8398,-97.0727,1.882,1111122 
TCOON,ioos:station:TCOON:009:1,2017-01-13T04:18:00Z,27.8398,-97.0727,1.873,1111122 
TCOON,ioos:station:TCOON:009:1,2017-01-13T05:18:00Z,27.8398,-97.0727,1.876,1111122 
TCOON,ioos:station:TCOON:009:1,2017-01-13T06:24:00Z,27.8398,-97.0727,1.884,1111122 
TCOON,ioos:station:TCOON:009:1,2017-01-13T08:42:00Z,27.8398,-97.0727,1.9,1111122 
TCOON,ioos:station:TCOON:009:1,2017-01-17T18:18:00Z,27.8398,-97.0727,1.674,1111122 
TCOON,ioos:station:TCOON:009:1,2017-01-17T19:18:00Z,27.8398,-97.0727,1.686,1111122 
TCOON,ioos:station:TCOON:009:1,2017-01-17T20:18:00Z,27.8398,-97.0727,1.731,1111122 
TCOON,ioos:station:TCOON:009:1,2017-01-17T21:18:00Z,27.8398,-97.0727,1.765,1111122 
TCOON,ioos:station:TCOON:009:1,2017-01-17T22:18:00Z,27.8398,-97.0727,1.787,1111122 
TCOON,ioos:station:TCOON:009:1,2017-01-17T23:18:00Z,27.8398,-97.0727,1.873,1111122 
TCOON,ioos:station:TCOON:009:1,2017-01-18T00:18:00Z,27.8398,-97.0727,1.81,1111122 
TCOON,ioos:station:TCOON:009:1,2017-01-18T01:18:00Z,27.8398,-97.0727,1.846,1111122 
TCOON,ioos:station:TCOON:009:1,2017-01-18T02:18:00Z,27.8398,-97.0727,1.829,1111122 
TCOON,ioos:station:TCOON:009:1,2017-01-18T03:18:00Z,27.8398,-97.0727,1.845,1111122 
TCOON,ioos:station:TCOON:009:1,2017-01-18T04:18:00Z,27.8398,-97.0727,1.804,1111122 
TCOON,ioos:station:TCOON:009:1,2017-01-18T05:18:00Z,27.8398,-97.0727,1.798,1111122 
TCOON,ioos:station:TCOON:009:1,2017-01-18T06:18:00Z,27.8398,-97.0727,1.791,1111122 
TCOON,ioos:station:TCOON:009:1,2017-01-18T07:18:00Z,27.8398,-97.0727,1.725,1111122 
TCOON,ioos:station:TCOON:009:1,2017-01-18T08:18:00Z,27.8398,-97.0727,1.701,1111122 
TCOON,ioos:station:TCOON:009:1,2017-01-18T09:18:00Z,27.8398,-97.0727,1.714,1111122 
TCOON,ioos:station:TCOON:009:1,2017-01-18T10:18:00Z,27.8398,-97.0727,1.707,1111122 
TCOON,ioos:station:TCOON:009:1,2017-01-18T11:18:00Z,27.8398,-97.0727,1.719,1111122 
TCOON,ioos:station:TCOON:009:1,2017-01-18T12:18:00Z,27.8398,-97.0727,1.724,1111122 
TCOON,ioos:station:TCOON:009:1,2017-01-18T13:18:00Z,27.8398,-97.0727,1.73,1111122 
TCOON,ioos:station:TCOON:009:1,2017-01-18T14:18:00Z,27.8398,-97.0727,1.725,1111122 
TCOON,ioos:station:TCOON:009:1,2017-01-18T15:18:00Z,27.8398,-97.0727,1.66,1111122 
TCOON,ioos:station:TCOON:009:1,2017-01-18T16:18:00Z,27.8398,-97.0727,1.669,1111122 
TCOON,ioos:station:TCOON:009:1,2017-01-18T17:18:00Z,27.8398,-97.0727,1.626,1111122 
TCOON,ioos:station:TCOON:009:1,2017-01-18T18:18:00Z,27.8398,-97.0727,1.619,1111122 
TCOON,ioos:station:TCOON:009:1,2017-01-18T19:18:00Z,27.8398,-97.0727,1.57,1111122 
TCOON,ioos:station:TCOON:009:1,2017-01-18T20:18:00Z,27.8398,-97.0727,1.605,1111122 
TCOON,ioos:station:TCOON:009:1,2017-01-18T21:18:00Z,27.8398,-97.0727,1.613,1111122 
TCOON,ioos:station:TCOON:009:1,2017-01-18T22:18:00Z,27.8398,-97.0727,1.669,1111122 
TCOON,ioos:station:TCOON:009:1,2017-01-18T23:18:00Z,27.8398,-97.0727,1.691,1111122 
TCOON,ioos:station:TCOON:009:1,2017-01-19T00:18:00Z,27.8398,-97.0727,1.713,1111122 
TCOON,ioos:station:TCOON:009:1,2017-01-19T01:18:00Z,27.8398,-97.0727,1.694,1111122 
TCOON,ioos:station:TCOON:009:1,2017-01-19T02:18:00Z,27.8398,-97.0727,1.705,1111122 
TCOON,ioos:station:TCOON:009:1,2017-01-19T03:18:00Z,27.8398,-97.0727,1.71,1111122 
TCOON,ioos:station:TCOON:009:1,2017-01-19T04:18:00Z,27.8398,-97.0727,1.668,1111122 
TCOON,ioos:station:TCOON:009:1,2017-01-19T05:18:00Z,27.8398,-97.0727,1.681,1111122 
TCOON,ioos:station:TCOON:009:1,2017-01-19T06:18:00Z,27.8398,-97.0727,1.665,1111122 
TCOON,ioos:station:TCOON:009:1,2017-01-19T07:18:00Z,27.8398,-97.0727,1.659,1111122 
TCOON,ioos:station:TCOON:009:1,2017-01-19T08:18:00Z,27.8398,-97.0727,1.634,1111122 
TCOON,ioos:station:TCOON:009:1,2017-01-19T09:18:00Z,27.8398,-97.0727,1.659,1111122 
TCOON,ioos:station:TCOON:009:1,2017-01-19T10:18:00Z,27.8398,-97.0727,1.671,1111122 
TCOON,ioos:station:TCOON:009:1,2017-01-19T11:18:00Z,27.8398,-97.0727,1.654,1111122 
TCOON,ioos:station:TCOON:009:1,2017-01-19T12:18:00Z,27.8398,-97.0727,1.631,1111122 
TCOON,ioos:station:TCOON:009:1,2017-01-19T13:18:00Z,27.8398,-97.0727,1.727,1111122 
TCOON,ioos:station:TCOON:009:1,2017-01-19T14:18:00Z,27.8398,-97.0727,1.755,1111122 
TCOON,ioos:station:TCOON:009:1,2017-01-19T15:18:00Z,27.8398,-97.0727,1.723,1111122 
TCOON,ioos:station:TCOON:009:1,2017-01-19T16:18:00Z,27.8398,-97.0727,1.791,1111122 
TCOON,ioos:station:TCOON:009:1,2017-01-19T17:18:00Z,27.8398,-97.0727,1.767,1111122 
TCOON,ioos:station:TCOON:009:1,2017-01-19T18:18:00Z,27.8398,-97.0727,1.762,1111122 
TCOON,ioos:station:TCOON:009:1,2017-01-19T19:18:00Z,27.8398,-97.0727,1.764,1111122 
TCOON,ioos:station:TCOON:009:1,2017-01-19T20:18:00Z,27.8398,-97.0727,1.823,1111122 
TCOON,ioos:station:TCOON:009:1,2017-01-19T21:18:00Z,27.8398,-97.0727,1.831,1111122 
TCOON,ioos:station:TCOON:009:1,2017-01-19T22:18:00Z,27.8398,-97.0727,1.81,1111122 
TCOON,ioos:station:TCOON:009:1,2017-01-19T23:18:00Z,27.8398,-97.0727,1.823,1111122 
TCOON,ioos:station:TCOON:009:1,2017-01-20T00:18:00Z,27.8398,-97.0727,1.857,1111122 
TCOON,ioos:station:TCOON:009:1,2017-01-20T01:18:00Z,27.8398,-97.0727,1.835,1111122 
TCOON,ioos:station:TCOON:009:1,2017-01-20T02:18:00Z,27.8398,-97.0727,1.849,1111122 
TCOON,ioos:station:TCOON:009:1,2017-01-20T04:24:00Z,27.8398,-97.0727,1.842,1111122 
TCOON,ioos:station:TCOON:009:1,2017-01-20T05:18:00Z,27.8398,-97.0727,1.781,1111122 
TCOON,ioos:station:TCOON:009:1,2017-01-20T06:18:00Z,27.8398,-97.0727,1.725,1111122 
TCOON,ioos:station:TCOON:009:1,2017-01-20T07:18:00Z,27.8398,-97.0727,1.655,1111122 
TCOON,ioos:station:TCOON:009:1,2017-01-20T08:18:00Z,27.8398,-97.0727,1.61,1111122 
TCOON,ioos:station:TCOON:009:1,2017-01-20T09:24:00Z,27.8398,-97.0727,1.626,1111122 
TCOON,ioos:station:TCOON:009:1,2017-01-20T10:18:00Z,27.8398,-97.0727,1.608,1111122 
TCOON,ioos:station:TCOON:009:1,2017-01-20T11:18:00Z,27.8398,-97.0727,1.614,1111122 
TCOON,ioos:station:TCOON:009:1,2017-01-20T12:18:00Z,27.8398,-97.0727,1.656,1111122 
TCOON,ioos:station:TCOON:009:1,2017-01-20T13:18:00Z,27.8398,-97.0727,1.655,1111122 
TCOON,ioos:station:TCOON:009:1,2017-01-20T14:18:00Z,27.8398,-97.0727,1.711,1111122 
TCOON,ioos:station:TCOON:009:1,2017-01-20T15:18:00Z,27.8398,-97.0727,1.736,1111122 
TCOON,ioos:station:TCOON:009:1,2017-01-20T16:18:00Z,27.8398,-97.0727,1.751,1111122 
TCOON,ioos:station:TCOON:009:1,2017-01-20T17:18:00Z,27.8398,-97.0727,1.776,1111122 
TCOON,ioos:station:TCOON:009:1,2017-01-20T18:18:00Z,27.8398,-97.0727,1.79,1111122 
TCOON,ioos:station:TCOON:009:1,2017-01-20T21:18:00Z,27.8398,-97.0727,1.769,1111122 
TCOON,ioos:station:TCOON:009:1,2017-01-20T22:18:00Z,27.8398,-97.0727,1.809,1111122 
TCOON,ioos:station:TCOON:009:1,2017-01-20T23:18:00Z,27.8398,-97.0727,1.793,1111122 
TCOON,ioos:station:TCOON:009:1,2017-01-21T00:18:00Z,27.8398,-97.0727,1.82,1111122 
TCOON,ioos:station:TCOON:009:1,2017-01-21T01:18:00Z,27.8398,-97.0727,1.838,1111122 
TCOON,ioos:station:TCOON:009:1,2017-01-21T02:18:00Z,27.8398,-97.0727,1.837,1111122 
TCOON,ioos:station:TCOON:009:1,2017-01-21T03:18:00Z,27.8398,-97.0727,1.839,1111122 
TCOON,ioos:station:TCOON:009:1,2017-01-21T04:24:00Z,27.8398,-97.0727,1.837,1111122 
TCOON,ioos:station:TCOON:009:1,2017-01-21T05:18:00Z,27.8398,-97.0727,1.824,1111122 
TCOON,ioos:station:TCOON:009:1,2017-01-21T06:18:00Z,27.8398,-97.0727,1.763,1111122 
TCOON,ioos:station:TCOON:009:1,2017-01-21T07:18:00Z,27.8398,-97.0727,1.722,1111122 
TCOON,ioos:station:TCOON:009:1,2017-01-21T08:18:00Z,27.8398,-97.0727,1.718,1111122 
TCOON,ioos:station:TCOON:009:1,2017-01-21T09:18:00Z,27.8398,-97.0727,1.689,1111122 
TCOON,ioos:station:TCOON:009:1,2017-01-21T10:18:00Z,27.8398,-97.0727,1.653,1111122 
TCOON,ioos:station:TCOON:009:1,2017-01-21T11:18:00Z,27.8398,-97.0727,1.674,1111122 
TCOON,ioos:station:TCOON:009:1,2017-01-21T12:18:00Z,27.8398,-97.0727,1.675,1111122 
TCOON,ioos:station:TCOON:009:1,2017-01-21T13:18:00Z,27.8398,-97.0727,1.704,1111122 
TCOON,ioos:station:TCOON:009:1,2017-01-21T14:18:00Z,27.8398,-97.0727,1.747,1111122 
TCOON,ioos:station:TCOON:009:1,2017-01-21T15:18:00Z,27.8398,-97.0727,1.777,1111122 
TCOON,ioos:station:TCOON:009:1,2017-01-21T16:18:00Z,27.8398,-97.0727,1.823,1111122 
TCOON,ioos:station:TCOON:009:1,2017-01-21T17:18:00Z,27.8398,-97.0727,1.829,1111122 
TCOON,ioos:station:TCOON:009:1,2017-01-21T18:18:00Z,27.8398,-97.0727,1.823,1111122 
TCOON,ioos:station:TCOON:009:1,2017-01-21T19:18:00Z,27.8398,-97.0727,1.83,1111122 
TCOON,ioos:station:TCOON:009:1,2017-01-21T20:18:00Z,27.8398,-97.0727,1.841,1111122 
TCOON,ioos:station:TCOON:009:1,2017-01-21T21:18:00Z,27.8398,-97.0727,1.84,1111122 
TCOON,ioos:station:TCOON:009:1,2017-01-21T22:18:00Z,27.8398,-97.0727,1.884,1111122 
TCOON,ioos:station:TCOON:009:1,2017-01-21T23:18:00Z,27.8398,-97.0727,1.892,1111122 